Regional Weather Roundup
Issued by NWS

Home | Current Version | Previous Version | Graphics & Text | Print | Product List | Glossary On
Versions: 1 2 3 4 5 6 7 8 9 10 11 12 13 14 15 16 17 18 19 20 21 22 23 24 25 26 27 28 29 30 31 32 33 34 35 36 37 38 39 40 41 42 43 44 45 46 47 48 49 50
845
ASUS43 KOAX 071910
RWRNE

WEATHER ROUNDUP FOR NEBRASKA
NATIONAL WEATHER SERVICE OMAHA NE
100 PM CST WED DEC 07 2016

NOTES: SATELLITE DATA IS BEING USED TO AUGMENT CLOUD COVER ABOVE
       12000 FEET.
       "FAIR" INDICATES FEW OR NO CLOUDS BELOW 12,000 FEET WITH NO
       SIGNIFICANT WEATHER AND/OR OBSTRUCTIONS TO VISIBILITY.

  * THESE STATIONS DO NOT REPORT WEATHER SUCH AS RAIN...SNOW OR FOG.

NEZ001>004-019>022-054>056-072000-
NEBRASKA PANHANDLE

CITY           SKY/WX    TMP DP  RH WIND       PRES   REMARKS
SCOTTSBLUFF    CLOUDY    14   1  56 NW15G24   30.30S WCI  -1
ALLIANCE       CLOUDY    12   3  67 NW8       30.26F WCI   0
CHADRON        SUNNY     12  -3  51 NW17G30   30.35S WCI  -5
KIMBALL        CLOUDY     9   3  78 N14       30.22S WCI  -8
SIDNEY         LGT SNOW  10   3  73 N18       30.26S WCI  -8
$$

NEZ057>060-069>072-079>082-072000-
SOUTHWEST NEBRASKA

CITY           SKY/WX    TMP DP  RH WIND       PRES   REMARKS
NORTH PLATTE   CLOUDY    19   3  49 NW13      30.31F WCI   6
IMPERIAL       LGT SNOW  16   8  71 NW13      30.30F WCI   2
LEXINGTON      CLOUDY    20  10  66 NW12      30.33S WCI   7
MCCOOK         CLOUDY    19  11  70 N14       30.33F HAZE    WCI   6
OGALLALA       CLOUDY    18   9  68 NW10      30.31S WCI   6
$$

NEZ005>010-023>029-035>040-094-072000-
NORTH CENTRAL NEBRASKA

CITY           SKY/WX    TMP DP  RH WIND       PRES   REMARKS
VALENTINE      SUNNY     14  -2  49 NW18      30.33R WCI  -3
AINSWORTH      MOSUNNY   14   1  55 NW18G24   30.30F WCI  -3
BROKEN BOW     PTSUNNY   20   1  43 NW17      30.30F WCI   5
O`NEILL        MOSUNNY   15   1  54 W18G25    30.31S WCI  -2
ORD            CLOUDY    18  -1  43 NW16      30.32F WCI   3
THEDFORD       CLOUDY    17   1  50 NW20G28   30.31R WCI   0
$$

NEZ041-046>049-061>064-073>077-083>087-072000-
SOUTH CENTRAL NEBRASKA

CITY           SKY/WX    TMP DP  RH WIND       PRES   REMARKS
GRAND ISLAND   CLOUDY    20   3  48 NW15      30.33F WCI   6
AURORA         CLOUDY    22   4  47 NW15      30.32F WCI   8
HASTINGS       CLOUDY    23   4  44 NW14      30.33F WCI  11
HEBRON         CLOUDY    24   7  47 N14       30.35F WCI  12
HOLDREGE       CLOUDY    20   8  60 NW10      30.32S WCI   9
KEARNEY *      MOSUNNY   21   1  42 N15       30.32F WCI   8
YORK           CLOUDY    21   5  49 NW15      30.32F WCI   8
$$

NEZ011>018-030>034-042>045-072000-
NORTHEAST NEBRASKA

CITY           SKY/WX    TMP DP  RH WIND       PRES   REMARKS
NORFOLK        MOSUNNY   19   2  47 W16       30.29S WCI   4
ALBION         CLOUDY    19   1  47 NW14G26   30.31S WCI   5
BLAIR          PTSUNNY   22   9  57 W16       30.29F WCI   8
FREMONT        CLOUDY    23   8  51 NW18      30.32S WCI   9
TEKAMAH        PTSUNNY   23   9  55 NW18G25   30.31S WCI   9
WAYNE          MOSUNNY   21   6  52 NW20      30.28F WCI   6
$$

NEZ050>053-065>068-078-088>093-072000-
SOUTHEAST NEBRASKA

CITY           SKY/WX    TMP DP  RH WIND       PRES   REMARKS
LINCOLN        CLOUDY    23   6  48 NW14      30.35F WCI  11
OMAHA EPPLEY   CLOUDY    23   8  52 NW15      30.32S WCI  10
BEATRICE       CLOUDY    24   9  51 NW14      30.34S WCI  12
FALLS CITY     CLOUDY    26  10  50 NW12      30.33S WCI  16
NEBRASKA CITY  CLOUDY    23   5  46 NW14      30.32F WCI  11
PLATTSMOUTH    CLOUDY    22   6  49 NW14      30.31F WCI   9
$$

NEZ044-045-051>053-067-072000-
OMAHA AREA

CITY           SKY/WX    TMP DP  RH WIND       PRES   REMARKS
OMAHA EPPLEY   CLOUDY    23   8  52 NW15      30.32S WCI  10
BLAIR          PTSUNNY   22   9  57 W16       30.29F WCI   8
FREMONT        CLOUDY    23   8  51 NW18      30.32S WCI   9
MILLARD        CLOUDY    23   8  52 NW15G21   30.32F WCI  10
OFFUTT AFB     CLOUDY    22   8  53 NW14G22   30.32S WCI  10
PLATTSMOUTH    CLOUDY    22   6  49 NW14      30.31F WCI   9
WAHOO          FAIR      23   6  49 NW16G22   30.32F WCI   9
$$




USA.gov is the U.S. government's official web portal to all federal, state and local government web resources and services.